Location: Newark
(27.9675°N, 86.8869°E)
Time: 16:22:29
(UTC+00:00)

Courier 1B Rocket - Pass Details

Date: 23 October 2019
Orbit: 920 x 1202 km, 28.2° (Epoch: 17 November)

Event Time Altitude Azimuth Distance (km) Brightness Sun altitude
Rises 00:25:33 0° 279° (W) 3,548 7.2 1.0°
Reaches altitude 10° 00:28:09 10° 276° (W) 2,611 6.6 1.5°
Maximum altitude 00:34:19 64° 196° (SSW) 1,037 5.3 2.8°
Drops below altitude 10° 00:40:46 10° 116° (ESE) 2,721 9.5 4.2°
Sets 00:43:31 0° 113° (ESE) 3,708 10.5 4.8°
